This is the latest recevied weather packets stored in our database for station/object DM4XI-13. If no packets are shown the sender has not sent any weather packets the latest 10 day(s).
| Time | Temp. | Humidity | Pressure | Rain* | Wind** | Luminosity | Snow |
|---|---|---|---|---|---|---|---|
| 1777189413 | 10° C | 58% | 1020.5 hPa | 0 mm | 0.89 m/s, 327° | 362 W/m² | - |
| 1777189352 | 10° C | 58% | 1020.7 hPa | 0 mm | 1.79 m/s, 296° | 358 W/m² | - |
| 1777189291 | 10.56° C | 58% | 1020.5 hPa | 0 mm | 2.68 m/s, 317° | 355 W/m² | - |
| 1777189231 | 10.56° C | 57% | 1020.8 hPa | 0 mm | 2.24 m/s, 296° | 352 W/m² | - |
| 1777189169 | 10.56° C | 57% | 1020.6 hPa | 0 mm | 0.89 m/s, 253° | 351 W/m² | - |
| 1777189108 | 10.56° C | 56% | 1020.7 hPa | 0 mm | 0.89 m/s, 316° | 350 W/m² | - |
| 1777189047 | 10.56° C | 56% | 1020.7 hPa | 0 mm | 1.79 m/s, 293° | 350 W/m² | - |
| 1777188986 | 10.56° C | 57% | 1020.6 hPa | 0 mm | 1.34 m/s, 338° | 346 W/m² | - |
| 1777188925 | 10.56° C | 56% | 1020.7 hPa | 0 mm | 0.45 m/s, 348° | 341 W/m² | - |
| 1777188864 | 10.56° C | 56% | 1020.7 hPa | 0 mm | 1.34 m/s, 310° | 340 W/m² | - |
| 1777188803 | 10.56° C | 56% | 1020.6 hPa | 0 mm | 1.34 m/s, 321° | 336 W/m² | - |
| 1777188742 | 10.56° C | 57% | 1020.7 hPa | 0 mm | 1.34 m/s, 304° | 337 W/m² | - |
| 1777188681 | 10.56° C | 57% | 1020.7 hPa | 0 mm | 1.34 m/s, 314° | 332 W/m² | - |
| 1777188620 | 10.56° C | 57% | 1020.6 hPa | 0 mm | 0.89 m/s, 326° | 331 W/m² | - |
| 1777188559 | 10.56° C | 56% | 1020.6 hPa | 0 mm | 0.89 m/s, 47° | 328 W/m² | - |
| 1777188498 | 10.56° C | 57% | 1020.5 hPa | 0 mm | 0.45 m/s, 132° | 325 W/m² | - |
| 1777188437 | 10.56° C | 57% | 1020.7 hPa | 0 mm | 1.34 m/s, 353° | 324 W/m² | - |
| 1777188376 | 10.56° C | 59% | 1020.7 hPa | 0 mm | 0 m/s | 325 W/m² | - |
| 1777188315 | 10.56° C | 58% | 1020.6 hPa | 0 mm | 0.89 m/s, 17° | 321 W/m² | - |
| 1777188254 | 10.56° C | 58% | 1020.6 hPa | 0 mm | 0.45 m/s, 23° | 312 W/m² | - |
| 1777188193 | 10.56° C | 58% | 1020.4 hPa | 0 mm | 1.79 m/s, 333° | 308 W/m² | - |
| 1777188132 | 10.56° C | 58% | 1020.5 hPa | 0 mm | 1.79 m/s, 327° | 313 W/m² | - |
| 1777188071 | 10.56° C | 58% | 1020.6 hPa | 0 mm | 0.45 m/s, 195° | 312 W/m² | - |
| 1777188010 | 10.56° C | 58% | 1020.6 hPa | 0 mm | 0.45 m/s, 280° | 309 W/m² | - |
| 1777187949 | 10.56° C | 58% | 1020.5 hPa | 0 mm | 0.89 m/s, 278° | 307 W/m² | - |
* Rain latest hour (hover to see other rain measurements)
** Current wind speed in m/s (hover to see current wind gust speed)